Location: Arroyo Grande
(40.2671°N, 4.2512°W)
Time: 23:35:17
(UTC+00:00)

Cosmos 2278 Rocket - Pass Details

Date: 04 October 2023
Orbit: 842 x 844 km, 71.0° (Epoch: 03 December)

Event Time Altitude Azimuth Distance (km) Brightness Sun altitude
Rises 20:14:05 0° 322° (NW) 3,408 6.2 -27.1°
Reaches altitude 10° 20:17:02 10° 308° (NW) 2,468 5.5 -27.6°
Maximum altitude 20:21:15 22° 259° (W) 1,768 4.4 -28.3°
Drops below altitude 10° 20:25:26 10° 211° (SSW) 2,454 4.7 -29.1°
Enters shadow 20:28:11 - 197° (SSW) 3,313 5.3 -29.6°
